Tracking 19245 objects as of 18-Aug-2018
HD Live streaming from Space Station
objects crossing your sky now

FENGYUN 1C DEB

Track FENGYUN 1C DEB now!
10-day predictions


NORAD ID: 30017
Int'l Code: 1999-025MS
Perigee: 548.0 km
Apogee: 880.7 km
Inclination: 98.7 °
Period: 98.9 minutes
Semi major axis: 7085 km
RCS: 0.0357 m2 (small)
Launch date: May 10, 1999
Source: People's Republic of China (PRC)
Launch site: Taiyaun Space Center, China (TSC)

Note: This is SATELLITE DEBRIS
aabbcc
Your satellite tracking list
Your tracking list is empty




NASA's NSSDC Master Catalog

Two Line Element Set (TLE):
1 30017U 99025MS  18228.62285402  .00000017  00000-0  12790-4 0  9997
2 30017  98.7294 104.9748 0234792  84.0724 278.7178 14.55671737615005
Source of the keplerian elements: AFSPC